COSMOS 2491 DEB, 57562

Orbit data source: Space-Track

COSMOS 2491 DEB, 57562 is space debris in LEO originally from a launch on Wed, 25 Dec 2013 UTC launched from the Plesetsk Missile And Space Complex (PKMTR). Debris objects in space refer to the collection of defunct objects orbiting the Earth. Examples of debris include non-operational satellites, rocket bodies, and fragments generated from explosions, collisions, or faulty payload assembly.

Loading next visibility...
Identifier
57562, 2013-076AZ
Orbit
LEO
Country
Flag of CISCIS
Related business
Manufacturer
TsNIIKhM
Mission
Spacecraft
Bus & Motor
Unknown
Mass
Unknown
Launch date (UTC)
2013-12-25 (13 years ago)
Launch vehicle
Unknown
Launch site
Plesetsk Missile And Space Complex (PKMTR)
Object type
Payload
Rocket body
Debris
Shape & HBR
Unknown shape, 0.1 m
Radar Cross Section
Small (<0.1 m²)

Expand to show TLE details & history
Last TLE update: 15 hours ago

TLE from 15 hours ago
0 COSMOS 2491 DEB
1 57562U 13076AZ  26255.69524532  .00000430  00000-0  17780-2 0  9990
2 57562  82.5997  26.0517 0003509 167.5395 192.5795 12.82584631156584
Epoch: 2026-09-12T16:41Z
TLE epoch observation values (Epoch: 2026-09-12T16:41:09.195Z)
Latitude
-0.00005°
Longitude
144.06282°
Altitude
1,336.496 km
Speed
7.188 km/s
True Right ascension
01h 44m 12s
True Declination
0° 00' 00"
Sunlit
Object was in full shadow at epoch
Visualization orbit readout
Latitude
Unknown
Longitude
Unknown
Altitude
Unknown
Speed
Unknown
Apparent Right ascension
Unknown
Apparent Declination
Unknown
Sunlit
N/A
Visualization observer readout
Local Sidereal Time
00:07:21
Azimuth
Unknown
Elevation
Unknown
Doppler factor
Unknown
Orbital elements
Apogee altitude
1,331.091 km
Perigee altitude
1,325.683 km
Semi-major axis
7,706.524 km
Eccentricity
0.00035
Inclination
82.5997°
RAAN
26.0517°
Arg. of periapsis
167.5395°
True anomaly
192.57075°
Mean anomaly
192.5795°
Eccentric anomaly
192.57512°
Mean motion
3.20816 °/min
Orbital period
112.21 mins
BSTAR
0.001778
Loading maneuver chart data...
Computing Atmospheric mass density...
Loading historical data...
Loading historical data...
Loading historical data...
Loading historical data...
Loading historical data...
Loading historical data...
Loading historical data...

Documentation

Showing up to 5 results
|